Wind_Speed
8 11 15 19 22 24 23 23 28 30 29 29 31 32 34 34 34 32 31 32 31 31
14 18 20 21 22 22 26 29 29 29 33 34 30 30 29 31 32 31 30 30 30 30
19 19 20 22 25 26 28 29 32 35 33 33 32 29 29 29 29 30 29 27 26 28
19 19 21 24 26 28 31 34 35 33 32 31 31 30 30 32 32 30 29 28 29 30
18 22 26 27 29 33 37 34 34 32 31 32 32 31 32 32 28 28 28 28 30 30
23 26 28 32 35 35 35 35 32 31 32 33 32 32 30 31 32 32 32 30 29 30
25 28 31 32 35 35 34 33 33 33 34 32 32 32 34 35 34 33 33 32 32 32
28 30 31 35 35 34 33 32 33 30 32 32 32 32 32 32 33 33 32 33 34 34
30 31 33 35 33 32 31 32 29 32 33 33 33 34 36 37 37 35 34 33 32 35
30 32 32 31 30 30 32 30 31 32 32 33 35 35 36 37 38 34 35 33 32 30
31 29 30 29 29 32 30 31 31 32 33 33 35 34 36 37 38 35 32 31 29 26
31 31 29 29 30 30 30 30 31 32 32 32 35 34 36 37 36 36 35 32 29 26
32 30 29 29 29 29 30 29 29 33 32 32 34 37 37 38 36 33 32 28 25 22
32 30 27 26 29 28 30 29 30 32 32 32 32 30 36 39 42 37 33 25 18 19
Wind_Direction
316 318 317 316 315 311 309 309 311 310 310 306 301 295 294 293 290 287 283 281 277 275
320 320 318 317 315 311 310 311 312 309 304 306 303 300 296 294 287 283 277 277 275 273
320 319 318 316 315 315 314 311 309 309 310 309 303 296 293 292 285 277 274 274 271 270
319 318 317 317 317 316 315 313 312 310 307 302 298 292 287 286 284 274 271 270 269 266
317 321 320 320 318 317 316 316 314 310 302 300 294 288 281 278 280 274 273 273 267 263
321 322 322 320 320 321 320 318 312 305 301 296 293 289 280 283 283 276 274 271 264 261
322 322 323 324 323 323 322 312 307 303 298 292 292 289 285 282 280 277 274 271 266 261
322 323 325 326 324 321 315 309 308 303 301 298 293 288 286 285 281 276 269 264 263 261
324 323 325 325 319 312 309 308 301 301 300 299 294 295 295 291 287 282 273 262 258 251
326 325 322 317 312 311 310 305 303 301 300 296 294 296 296 293 292 289 285 273 258 254
330 320 317 315 315 313 307 305 304 302 299 297 295 297 299 298 297 292 287 282 264 255
329 322 318 316 313 308 306 306 305 303 301 299 299 303 305 303 298 289 279 278 260 251
330 321 316 310 305 308 307 305 306 304 303 302 301 305 304 307 305 297 288 282 251 247
329 326 317 310 310 309 310 309 307 303 301 301 303 312 317 318 312 301 281 256 233 226
Height
822 821 819 817 814 812 808 806 803 799 796 792 789 786 783 780 777 774 772 770 768 768
820 818 815 813 810 807 804 800 796 793 789 785 781 778 775 771 768 766 764 762 760 759
816 814 811 809 805 802 798 795 790 785 780 776 772 769 767 763 760 757 755 754 752 751
813 810 808 804 800 797 792 787 782 777 773 769 765 762 758 755 751 749 747 746 744 742
809 806 802 798 794 790 783 779 774 770 766 761 757 753 749 745 743 740 738 736 735 733
804 801 797 792 787 781 776 771 767 763 758 753 749 745 741 738 734 731 728 725 724 722
800 796 791 785 780 775 770 764 759 755 750 746 741 737 733 728 724 721 718 716 714 711
795 790 785 779 774 769 764 759 753 748 744 739 733 728 723 719 714 709 705 703 701 700
790 785 779 773 768 763 758 752 748 742 736 730 724 719 714 709 703 697 691 687 685 684
784 779 774 769 763 758 752 746 741 735 730 723 716 711 704 698 692 686 680 675 671 671
779 774 769 764 758 752 746 741 735 729 722 715 708 702 695 689 682 676 670 666 662 659
775 769 764 759 753 748 742 735 729 721 715 708 701 695 687 680 672 664 657 653 650 650
771 766 760 754 749 743 737 729 723 715 708 701 695 686 679 671 662 652 646 642 639 641
767 761 756 750 744 738 731 724 717 710 702 695 688 681 673 662 651 637 626 625 629 632